DW5735 Weather Reports


Display with metric or nautical units.
time (UTC)temp
F
wind
direction
speed
MPH
gust
MPH
rain 1hr
in
rain 24hr
in
rain mn
in
humidity
%
barometer
mb
20260831033111 63 68 0.0 9.0 0.00 0.01 0.01 72 1015.5
20260831032828 63 46 1.0 9.0 0.00 0.04 0.01 70 1016.2
20260831032319 63 36 2.0 6.0 0.00 0.04 0.01 70 1016.1
20260831031819 63 25 0.0 6.0 0.00 0.04 0.01 71 1016.0
20260831031607 63 43 0.0 6.0 0.00 0.01 0.01 70 1015.3
20260831031330 64 44 0.0 6.0 0.00 0.04 0.01 71 1015.9
20260831030331 64 44 5.0 10.0 0.00 0.04 0.01 72 1015.7
20260831030053 64 17 4.0 9.0 0.00 0.01 0.01 74 1015.0
20260831025838 64 30 6.0 9.0 0.00 0.04 0.01 72 1015.6
20260831024835 64 23 6.0 9.0 0.00 0.04 0.01 69 1015.5
20260831024620 64 30 6.0 9.0 0.00 0.01 0.01 70 1014.9
20260831024332 64 34 4.0 7.0 0.00 0.04 0.01 70 1015.5
20260831023817 65 46 0.0 6.0 0.00 0.04 0.01 69 1015.6
20260831023341 65 29 0.0 1.0 0.00 0.04 0.01 69 1015.6
20260831023018 64 28 0.0 1.0 0.00 0.01 0.01 69 1014.9
20260831022843 65 47 0.0 1.0 0.00 0.04 0.01 68 1015.5
20260831022318 65 46 0.0 1.0 0.00 0.04 0.01 69 1015.6
20260831021831 65 27 0.0 3.0 0.00 0.04 0.01 69 1015.6
20260831021555 65 34 0.0 3.0 0.00 0.01 0.01 69 1015.0
20260831021333 65 42 0.0 0.0 0.00 0.04 0.01 69 1015.7
20260831020820 65 43 0.0 1.0 0.00 0.04 0.01 68 1015.7
20260831020322 65 58 0.0 2.0 0.00 0.04 0.01 68 1015.8
20260831020111 65 34 0.0 4.0 0.00 0.01 0.01 68 1015.1
20260831015828 66 34 0.0 4.0 0.00 0.04 0.01 68 1015.8
20260831015325 66 43 0.0 4.0 0.00 0.04 0.01 66 1015.8
20260831014827 66 50 0.0 0.0 0.00 0.04 0.01 66 1015.8
20260831014604 65 48 0.0 0.0 0.00 0.01 0.01 67 1015.1
20260831014322 66 63 0.0 0.0 0.00 0.04 0.01 66 1015.8
20260831013825 66 84 0.0 0.0 0.00 0.04 0.01 66 1015.8
20260831013328 66 87 0.0 0.0 0.00 0.04 0.01 65 1015.8
20260831013103 66 75 0.0 0.0 0.00 0.01 0.01 65 1015.2
20260831012856 66 96 0.0 0.0 0.00 0.04 0.01 65 1015.8
20260831012332 66 110 0.0 0.0 0.00 0.04 0.01 64 1015.8
20260831011818 66 106 0.0 0.0 0.00 0.04 0.01 64 1015.9
20260831011616 66 85 0.0 0.0 0.00 0.01 0.01 64 1015.3
20260831011344 66 64 0.0 0.0 0.00 0.04 0.01 64 1015.9
20260831010836 66 68 0.0 0.0 0.00 0.04 0.01 63 1015.9
20260831010319 66 75 0.0 0.0 0.00 0.04 0.01 63 1016.0
20260831010109 66 70 0.0 0.0 0.00 0.01 0.01 63 1015.3
20260831005833 66 62 0.0 0.0 0.00 0.04 0.01 63 1015.9
20260831005321 66 38 0.0 0.0 0.00 0.04 0.01 64 1015.8
20260831004834 66 60 0.0 0.0 0.00 0.04 0.01 63 1015.8
20260831004559 66 77 0.0 0.0 0.00 0.01 0.01 64 1015.2
20260831004317 66 56 0.0 0.0 0.00 0.04 0.01 64 1015.7
20260831003842 66 30 0.0 0.0 0.00 0.04 0.01 64 1015.7
20260831003341 66 27 0.0 0.0 0.00 0.04 0.01 64 1015.6
20260831003103 66 31 0.0 0.0 0.00 0.01 0.01 64 1015.1
20260831002816 66 5 0.0 0.0 0.00 0.04 0.01 65 1015.6
20260831002328 66 60 0.0 0.0 0.00 0.04 0.01 64 1015.6
20260831001900 66 99 0.0 0.0 0.00 0.04 0.01 64 1015.7
20260831001516 66 110 0.0 0.0 0.00 0.01 0.01 63 1015.1
20260831001333 66 79 0.0 0.0 0.00 0.04 0.01 63 1015.7
20260831000837 67 89 0.0 0.0 0.00 0.04 0.01 64 1015.8
20260831000322 67 57 0.0 0.0 0.00 0.04 0.01 62 1015.8
20260831000114 66 76 0.0 0.0 0.00 0.01 0.01 61 1015.2
20260830235834 67 77 0.0 0.0 0.00 0.04 0.01 61 1015.8
20260830235325 67 61 0.0 0.0 0.00 0.04 0.01 60 1015.8
20260830234836 67 256 0.0 0.0 0.00 0.04 0.01 58 1015.8
20260830234620 67 256 0.0 0.0 0.00 0.01 0.01 60 1015.3
20260830234321 67 257 0.0 0.0 0.00 0.04 0.01 60 1015.8
20260830233832 67 271 0.0 0.0 0.00 0.04 0.01 59 1015.8
20260830233324 67 247 0.0 0.0 0.00 0.04 0.01 60 1015.8
20260830233102 66 204 0.0 0.0 0.00 0.01 0.01 59 1015.2
20260830232822 67 205 0.0 0.0 0.00 0.04 0.01 60 1015.9
20260830232341 67 212 0.0 0.0 0.00 0.04 0.01 60 1015.8
20260830231817 67 203 0.0 0.0 0.00 0.04 0.01 58 1015.8
20260830231322 67 219 0.0 0.0 0.00 0.04 0.01 59 1015.8
20260830230827 67 235 0.0 1.0 0.00 0.04 0.01 59 1015.8
20260830230326 67 228 0.0 1.0 0.00 0.04 0.01 59 1015.8
20260830230055 67 236 0.0 1.0 0.00 0.01 0.01 60 1015.3
20260830225851 67 190 0.0 1.0 0.00 0.08 0.01 59 1015.8
20260830225317 67 242 0.0 1.0 0.00 0.08 0.01 59 1015.8
20260830224817 68 206 0.0 0.0 0.00 0.08 0.01 58 1015.8
20260830224557 67 259 0.0 0.0 0.00 0.02 0.01 60 1015.3
20260830224319 68 243 0.0 0.0 0.00 0.08 0.01 58 1015.8
20260830223900 68 257 0.0 0.0 0.00 0.08 0.01 58 1015.8
20260830223348 68 241 0.0 0.0 0.00 0.08 0.01 58 1015.9
20260830223110 67 239 0.0 0.0 0.00 0.02 0.01 59 1015.3
20260830222829 68 239 0.0 0.0 0.00 0.08 0.01 59 1015.9
20260830222316 67 287 0.0 0.0 0.00 0.08 0.01 61 1015.9
20260830221829 66 287 0.0 0.0 0.00 0.08 0.01 60 1015.9
20260830221508 66 280 0.0 0.0 0.00 0.02 0.01 60 1015.5
20260830221328 66 280 0.0 0.0 0.00 0.08 0.01 62 1016.0
20260830220835 66 285 0.0 0.0 0.00 0.08 0.01 61 1015.9
20260830220317 66 283 0.0 0.0 0.00 0.08 0.01 61 1016.0
20260830220016 66 284 0.0 0.0 0.00 0.02 0.01 62 1015.6
20260830215839 66 228 0.0 0.0 0.00 0.12 0.01 62 1016.1
20260830215330 66 257 0.0 0.0 0.00 0.12 0.01 62 1016.0
20260830214901 66 242 0.0 3.0 0.00 0.12 0.01 61 1016.1
20260830214602 66 260 0.0 3.0 0.00 0.03 0.01 64 1015.6
20260830214340 66 239 0.0 3.0 0.00 0.12 0.01 62 1016.1
20260830213837 66 250 0.0 2.0 0.00 0.12 0.01 61 1016.1
20260830213335 66 264 0.0 0.0 0.00 0.12 0.01 61 1016.1
20260830213100 66 277 0.0 0.0 0.00 0.03 0.01 61 1015.7
20260830212838 67 255 0.0 0.0 0.00 0.12 0.01 61 1016.1
20260830212329 66 262 0.0 0.0 0.00 0.12 0.01 61 1016.1
20260830211854 66 287 0.0 0.0 0.00 0.12 0.01 62 1016.1
20260830211624 65 286 0.0 0.0 0.00 0.03 0.01 62 1015.7
20260830211318 66 271 0.0 0.0 0.00 0.12 0.01 62 1016.1
20260830210830 66 251 0.0 0.0 0.00 0.12 0.01 63 1016.1
20260830210331 65 94 0.0 0.0 0.00 0.12 0.01 64 1016.1
20260830205839 65 33 0.0 0.0 0.00 0.35 0.01 63 1016.1
20260830205330 65 353 0.0 0.0 0.00 0.35 0.01 64 1016.0
20260830204849 64 26 0.0 0.0 0.04 0.35 0.01 65 1016.0
20260830204621 63 25 0.0 0.0 0.01 0.09 0.01 65 1015.7
20260830204325 64 34 0.0 5.0 0.04 0.35 0.01 65 1016.1
20260830203846 64 31 0.0 5.0 0.04 0.35 0.01 67 1016.0
20260830203317 64 32 0.0 5.0 0.04 0.35 0.01 66 1016.1
20260830203102 63 34 2.0 5.0 0.01 0.09 0.01 68 1015.7
20260830202321 64 19 0.0 0.0 0.04 0.35 0.01 65 1016.1
20260830201835 64 63 0.0 0.0 0.04 0.35 0.01 65 1016.2
20260830201515 63 39 0.0 0.0 0.01 0.09 0.01 66 1015.7
20260830201335 64 17 0.0 0.0 0.04 0.35 0.01 66 1016.2
20260830200848 63 79 0.0 0.0 0.04 0.35 0.01 64 1016.2
20260830200336 63 86 0.0 0.0 0.04 0.35 0.01 69 1016.3
20260830200057 63 58 0.0 0.0 0.01 0.09 0.01 67 1015.8
20260830195834 63 51 0.0 0.0 0.04 1.06 0.01 65 1016.2
20260830195319 64 43 0.0 0.0 0.04 1.06 0.01 65 1016.2
20260830194819 64 26 0.0 0.0 0.00 1.02 0.00 65 1016.1
20260830194620 63 345 0.0 0.0 0.00 0.26 0.00 66 1015.7
20260830194322 64 354 0.0 0.0 0.00 1.02 0.00 64 1016.1
20260830193827 64 302 0.0 0.0 0.00 1.02 0.00 66 1016.1
20260830193339 63 302 0.0 0.0 0.00 1.02 0.00 65 1016.1
20260830193107 63 302 0.0 0.0 0.00 0.26 0.00 65 1015.7
20260830192825 63 287 0.0 0.0 0.00 1.02 0.00 66 1016.1
20260830192325 64 280 0.0 0.0 0.00 1.02 0.00 67 1016.1
20260830191838 64 225 0.0 0.0 0.00 1.02 0.00 64 1016.1
20260830191515 63 165 0.0 0.0 0.00 0.26 0.00 65 1015.8
20260830190842 64 264 0.0 0.0 0.00 1.02 0.00 60 1016.2
20260830190332 64 252 0.0 0.0 0.00 1.02 0.00 60 1016.1
20260830190124 63 278 0.0 0.0 0.00 0.26 0.00 62 1015.7
20260830185824 64 282 0.0 0.0 0.00 1.61 0.00 61 1016.0
20260830185337 64 291 0.0 3.0 0.00 1.61 0.00 62 1016.1
20260830184836 64 284 0.0 3.0 0.00 1.61 0.00 62 1016.1
20260830184321 64 276 0.0 0.0 0.00 1.61 0.00 61 1016.1
20260830183332 64 273 0.0 0.0 0.00 1.61 0.00 63 1016.1
20260830183018 64 283 0.0 7.0 0.00 0.41 0.00 61 1015.7
20260830182843 64 285 0.0 7.0 0.00 1.61 0.00 59 1016.1
20260830182351 64 239 4.0 5.0 0.00 1.61 0.00 62 1016.1
20260830181823 64 226 0.0 0.0 0.00 1.61 0.00 63 1016.2
20260830181509 63 236 0.0 0.0 0.00 0.41 0.00 62 1015.8
20260830181333 64 255 0.0 0.0 0.00 1.61 0.00 63 1016.1
20260830180840 64 257 0.0 0.0 0.00 1.61 0.00 62 1016.1
20260830180326 64 257 0.0 0.0 0.00 1.61 0.00 64 1016.1
20260830180116 64 214 0.0 0.0 0.00 0.41 0.00 65 1015.7
20260830175823 64 133 0.0 0.0 0.00 2.48 0.00 65 1016.1
20260830175332 64 133 0.0 0.0 0.00 2.48 0.00 65 1016.1
20260830174826 64 220 0.0 0.0 0.00 2.48 0.00 65 1016.0
20260830174612 63 249 0.0 0.0 0.00 0.63 0.00 68 1015.7
20260830174330 63 249 0.0 0.0 0.00 2.48 0.00 68 1016.0
20260830173819 63 248 0.0 3.0 0.00 2.48 0.00 70 1015.9
20260830173332 63 247 0.0 3.0 0.00 2.48 0.00 69 1016.0
20260830173144 63 226 0.0 3.0 0.00 0.63 0.00 67 1015.6
20260830172820 63 225 0.0 0.0 0.00 2.48 0.00 67 1015.9
20260830172329 63 226 0.0 0.0 0.00 2.48 0.00 66 1015.9
20260830171853 63 251 0.0 0.0 0.00 2.48 0.00 70 1015.9
20260830171613 62 231 0.0 0.0 0.00 0.63 0.00 67 1015.5
20260830171321 62 236 0.0 0.0 0.00 2.48 0.00 68 1015.8
20260830170828 62 266 0.0 0.0 0.00 2.48 0.00 70 1015.8
20260830170327 62 236 0.0 0.0 0.00 2.48 0.00 72 1015.8
20260830170056 62 269 0.0 0.0 0.00 0.63 0.00 72 1015.5
20260830165827 62 242 0.0 0.0 0.00 2.99 0.00 73 1015.8
20260830165321 62 246 0.0 0.0 0.00 2.99 0.00 72 1015.7
20260830164827 62 259 0.0 0.0 0.00 2.99 0.00 73 1015.8
20260830164557 61 256 0.0 0.0 0.00 0.76 0.00 74 1015.5
20260830164334 61 231 0.0 0.0 0.00 2.99 0.00 74 1015.8
20260830163841 61 269 0.0 0.0 0.00 2.99 0.00 74 1015.8
20260830163335 61 282 0.0 0.0 0.00 2.99 0.00 73 1015.8
20260830163101 61 291 0.0 0.0 0.00 0.76 0.00 73 1015.4
20260830162835 61 287 0.0 0.0 0.00 2.99 0.00 72 1015.7
20260830162319 61 269 0.0 0.0 0.00 2.99 0.00 72 1015.6
20260830161834 61 241 0.0 0.0 0.00 2.99 0.00 73 1015.7
20260830161609 61 245 0.0 0.0 0.00 0.76 0.00 74 1015.4
20260830161327 61 200 0.0 0.0 0.00 2.99 0.00 73 1015.8
20260830160843 61 283 0.0 0.0 0.00 2.99 0.00 75 1015.7
20260830160327 60 262 0.0 0.0 0.00 2.99 0.00 76 1015.6
20260830160007 60 90 0.0 0.0 0.00 0.76 0.00 75 1015.3
20260830155825 60 91 0.0 0.0 0.00 3.54 0.00 75 1015.5
20260830155335 59 31 0.0 0.0 0.00 3.54 0.00 77 1015.6
20260830154820 59 32 0.0 0.0 0.00 3.54 0.00 77 1015.5
20260830154552 58 31 0.0 0.0 0.00 0.90 0.00 78 1015.2
20260830154336 59 93 0.0 0.0 0.00 3.54 0.00 77 1015.5
20260830153828 59 41 0.0 0.0 0.00 3.54 0.00 78 1015.5
20260830153338 59 43 0.0 0.0 0.00 3.54 0.00 77 1015.5
20260830153055 58 71 0.0 0.0 0.00 0.90 0.00 77 1015.2
20260830152854 58 71 0.0 0.0 0.00 3.54 0.00 77 1015.5
20260830152321 58 71 0.0 0.0 0.00 3.54 0.00 77 1015.5
20260830151841 58 92 0.0 0.0 0.00 3.54 0.00 79 1015.4
20260830151624 57 92 0.0 0.0 0.00 0.90 0.00 79 1015.1
20260830151324 58 79 0.0 0.0 0.00 3.54 0.00 78 1015.4
20260830150826 58 58 0.0 0.0 0.00 3.54 0.00 80 1015.4
20260830150326 57 40 0.0 0.0 0.00 3.54 0.00 82 1015.3
20260830145838 57 46 0.0 0.0 0.00 3.54 0.00 83 1015.3
20260830145331 57 46 0.0 0.0 0.00 3.54 0.00 82 1015.3
20260830144841 57 46 0.0 0.0 0.00 3.54 0.00 82 1015.2
20260830144604 56 79 0.0 0.0 0.00 0.90 0.00 82 1014.8
20260830144335 57 78 0.0 0.0 0.00 3.54 0.00 82 1015.1
20260830143844 57 53 0.0 0.0 0.00 3.54 0.00 81 1015.1
20260830143318 57 23 0.0 0.0 0.00 3.54 0.00 82 1015.1
20260830143110 57 44 0.0 0.0 0.00 0.90 0.00 80 1014.8
20260830142822 57 36 0.0 0.0 0.00 3.54 0.00 80 1015.1
20260830142323 57 51 0.0 0.0 0.00 3.54 0.00 82 1015.1
20260830141830 57 77 0.0 0.0 0.00 3.54 0.00 81 1015.1
20260830141602 56 80 0.0 0.0 0.00 0.90 0.00 81 1014.8
20260830141321 56 85 0.0 0.0 0.00 3.54 0.00 83 1015.0
20260830140831 56 34 0.0 0.0 0.00 3.54 0.00 82 1015.0
20260830140341 56 104 0.0 0.0 0.00 3.54 0.00 83 1014.9
20260830140105 55 84 0.0 0.0 0.00 0.90 0.00 84 1014.6
20260830135849 55 50 0.0 0.0 0.00 3.54 0.00 85 1014.8
20260830135340 55 86 0.0 0.0 0.00 3.54 0.00 85 1014.9
20260830134818 54 86 0.0 0.0 0.00 3.54 0.00 85 1014.7
20260830134603 54 86 0.0 0.0 0.00 0.90 0.00 85 1014.4
20260830134319 54 73 0.0 0.0 0.00 3.54 0.00 84 1014.7
20260830133817 54 102 0.0 2.0 0.00 3.54 0.00 85 1014.8
20260830133323 54 91 0.0 6.0 0.00 3.54 0.00 86 1014.7
20260830133117 54 87 0.0 6.0 0.00 0.90 0.00 86 1014.4
20260830132853 55 43 4.0 6.0 0.00 3.54 0.00 86 1014.7
20260830132333 54 26 0.0 0.0 0.00 3.54 0.00 88 1014.6
20260830131845 54 95 0.0 0.0 0.00 3.54 0.00 88 1014.6
20260830131329 54 309 0.0 0.0 0.00 3.54 0.00 89 1014.7
20260830130835 53 99 0.0 0.0 0.00 3.54 0.00 87 1014.5
20260830130341 54 95 0.0 0.0 0.00 3.54 0.00 86 1014.5
20260830130104 53 94 0.0 0.0 0.00 0.90 0.00 86 1014.2
20260830125848 54 95 0.0 0.0 0.00 3.54 0.00 86 1014.5
20260830125330 54 96 0.0 0.0 0.00 3.54 0.00 86 1014.5
20260830124901 54 108 0.0 0.0 0.00 3.54 0.00 86 1014.5
20260830124556 53 85 0.0 0.0 0.00 0.90 0.00 86 1014.2
20260830124331 54 85 0.0 0.0 0.00 3.54 0.00 86 1014.5
20260830123827 54 93 0.0 0.0 0.00 3.54 0.00 86 1014.4
20260830123333 54 68 0.0 0.0 0.00 3.54 0.00 88 1014.4
20260830123104 53 8 0.0 0.0 0.00 0.90 0.00 87 1014.0
20260830122839 54 92 0.0 0.0 0.00 3.54 0.00 86 1014.3
20260830122323 54 84 0.0 0.0 0.00 3.54 0.00 88 1014.3
20260830121825 54 88 0.0 0.0 0.00 3.54 0.00 87 1014.4
20260830121606 53 87 0.0 0.0 0.00 0.90 0.00 86 1013.9
20260830121336 54 125 0.0 0.0 0.00 3.54 0.00 86 1014.4
20260830120840 54 101 0.0 0.0 0.00 3.54 0.00 87 1014.4
20260830120329 54 91 0.0 0.0 0.00 3.54 0.00 85 1014.4
20260830120055 54 90 0.0 0.0 0.00 0.90 0.00 85 1014.0
20260830115839 54 91 0.0 0.0 0.00 3.54 0.00 85 1014.4
20260830115334 54 90 0.0 0.0 0.00 3.54 0.00 86 1014.4
20260830114822 54 90 0.0 0.0 0.00 3.54 0.00 86 1014.4
20260830114618 54 105 0.0 0.0 0.00 0.90 0.00 86 1014.1
20260830114317 54 99 0.0 0.0 0.00 3.54 0.00 87 1014.4
20260830113827 54 105 0.0 0.0 0.00 3.54 0.00 88 1014.3
20260830113325 54 105 0.0 0.0 0.00 3.54 0.00 87 1014.4
20260830113012 53 107 0.0 0.0 0.00 0.90 0.00 86 1013.9
20260830112832 54 104 0.0 0.0 0.00 3.54 0.00 87 1014.3
20260830112323 54 86 0.0 0.0 0.00 3.54 0.00 89 1014.4
20260830111844 54 87 0.0 0.0 0.00 3.54 0.00 87 1014.3
20260830111600 54 87 0.0 0.0 0.00 0.90 0.00 87 1013.9
20260830111346 54 87 0.0 0.0 0.00 3.54 0.00 86 1014.3
20260830110833 55 87 0.0 0.0 0.00 3.54 0.00 86 1014.3
20260830110323 55 88 0.0 0.0 0.00 3.54 0.00 85 1014.3
20260830105820 55 86 0.0 0.0 0.00 3.54 0.00 85 1014.2
20260830105325 56 46 0.0 0.0 0.00 3.54 0.00 86 1014.3
20260830104828 56 79 0.0 0.0 0.00 3.54 0.00 85 1014.3
20260830104601 55 79 0.0 0.0 0.00 0.90 0.00 85 1013.8
20260830104343 56 90 0.0 0.0 0.00 3.54 0.00 85 1014.3
20260830103836 55 100 0.0 0.0 0.00 3.54 0.00 86 1014.3
20260830103346 55 91 0.0 0.0 0.00 3.54 0.00 86 1014.2
20260830103112 55 105 0.0 0.0 0.00 0.90 0.00 86 1013.7
20260830102841 55 86 0.0 0.0 0.00 3.54 0.00 86 1014.2
20260830102335 55 68 0.0 0.0 0.00 3.54 0.00 86 1014.2
20260830101821 55 61 0.0 0.0 0.00 3.54 0.00 87 1014.2
20260830101602 55 98 0.0 0.0 0.00 0.90 0.00 87 1013.6
20260830101404 56 91 0.0 0.0 0.00 3.54 0.00 87 1014.2
20260830100838 56 82 0.0 0.0 0.00 3.54 0.00 87 1014.1
20260830100356 56 76 0.0 0.0 0.00 3.54 0.00 87 1014.2
20260830100112 55 95 0.0 0.0 0.00 0.90 0.00 87 1013.7
20260830095822 56 81 0.0 0.0 0.00 3.54 0.00 87 1014.2
20260830095338 56 63 0.0 0.0 0.00 3.54 0.00 87 1014.1
20260830094507 55 56 0.0 0.0 0.00 0.90 0.00 87 1013.6
20260830094331 56 57 0.0 0.0 0.00 3.54 0.00 87 1014.1
20260830093827 56 49 0.0 0.0 0.00 3.54 0.00 86 1014.1
20260830093343 56 53 0.0 0.0 0.00 3.54 0.00 87 1014.2
20260830093053 55 76 0.0 0.0 0.00 0.90 0.00 87 1013.7
20260830092824 56 97 0.0 0.0 0.00 3.54 0.00 87 1014.2
20260830092341 56 79 0.0 0.0 0.00 3.54 0.00 87 1014.1
20260830091855 56 108 0.0 0.0 0.00 3.54 0.00 87 1014.2
20260830091601 56 85 0.0 0.0 0.00 0.90 0.00 87 1013.7
20260830091321 56 155 0.0 0.0 0.00 3.54 0.00 87 1014.2
20260830090830 56 103 0.0 0.0 0.00 3.54 0.00 87 1014.1
20260830090324 56 72 0.0 0.0 0.00 3.54 0.00 87 1014.2
20260830090107 56 91 0.0 0.0 0.00 0.90 0.00 87 1013.6
20260830085903 56 96 0.0 0.0 0.00 3.54 0.00 87 1014.2
20260830085338 56 91 0.0 0.0 0.00 3.54 0.00 87 1014.1
20260830084823 56 42 0.0 0.0 0.00 3.54 0.00 87 1014.1
20260830084331 56 65 0.0 0.0 0.00 3.54 0.00 86 1014.0
20260830083820 56 71 0.0 0.0 0.00 3.54 0.00 86 1014.0
20260830083329 56 70 0.0 0.0 0.00 3.54 0.00 86 1014.0
20260830083054 56 71 0.0 0.0 0.00 0.90 0.00 86 1013.5
20260830082845 56 71 0.0 0.0 0.00 3.54 0.00 86 1013.9
20260830082342 56 89 0.0 0.0 0.00 3.54 0.00 86 1014.0
20260830081838 56 90 0.0 0.0 0.00 3.54 0.00 85 1014.1
20260830081555 56 54 0.0 0.0 0.00 0.90 0.00 86 1013.5
20260830081327 56 54 0.0 0.0 0.00 3.54 0.00 86 1014.0
20260830080833 56 54 0.0 0.0 0.00 3.54 0.00 85 1013.9
20260830080319 56 53 0.0 0.0 0.00 3.54 0.00 85 1014.0
20260830080104 56 54 0.0 0.0 0.00 0.90 0.00 86 1013.5
20260830075852 57 53 0.0 0.0 0.00 3.54 0.00 85 1014.0
20260830075321 56 63 0.0 0.0 0.00 3.54 0.00 85 1014.0
20260830074827 56 62 0.0 0.0 0.00 3.54 0.00 84 1014.0
20260830074604 56 72 0.0 0.0 0.00 0.90 0.00 85 1013.5
20260830074324 56 98 0.0 0.0 0.00 3.54 0.00 85 1014.1
20260830073818 56 98 0.0 0.0 0.00 3.54 0.00 85 1014.1
20260830073321 56 89 0.0 0.0 0.00 3.54 0.00 86 1014.2
20260830073121 56 104 0.0 0.0 0.00 0.90 0.00 86 1013.5
20260830072849 56 91 0.0 0.0 0.00 3.54 0.00 86 1014.1
20260830072344 56 84 0.0 0.0 0.00 3.54 0.00 86 1014.1
20260830071854 56 94 0.0 0.0 0.00 3.54 0.00 86 1014.1
20260830071555 56 101 0.0 0.0 0.00 0.90 0.00 86 1013.4
20260830071327 56 84 0.0 0.0 0.00 3.54 0.00 87 1014.1
20260830070836 56 91 0.0 0.0 0.00 3.54 0.00 87 1014.1
20260830070327 56 66 0.0 0.0 0.00 3.54 0.00 87 1014.2
20260830070002 56 51 0.0 0.0 0.00 0.90 0.00 87 1013.6
20260830065840 56 88 0.0 0.0 0.00 3.54 0.90 88 1014.2
20260830065350 56 70 0.0 0.0 0.00 3.54 0.90 88 1014.2
20260830064850 56 75 0.0 0.0 0.00 3.54 0.90 87 1014.2
20260830064610 56 99 0.0 0.0 0.00 0.90 0.90 87 1013.6
20260830064318 56 85 0.0 0.0 0.00 3.54 0.90 87 1014.2
20260830063830 56 96 0.0 0.0 0.00 3.54 0.90 87 1014.2
20260830063333 56 65 0.0 0.0 0.00 3.54 0.90 87 1014.3
20260830062828 56 63 0.0 0.0 0.00 3.54 0.90 88 1014.3
20260830062336 56 65 0.0 0.0 0.00 3.54 0.90 88 1014.3
20260830061830 56 82 0.0 0.0 0.00 3.54 0.90 88 1014.3
20260830061616 56 82 0.0 0.0 0.00 0.90 0.90 88 1013.7
20260830061325 56 82 0.0 0.0 0.00 3.54 0.90 88 1014.4
20260830060841 56 82 0.0 0.0 0.00 3.54 0.90 88 1014.4
20260830060328 56 82 0.0 0.0 0.00 3.54 0.90 88 1014.5
20260830060116 56 82 0.0 0.0 0.00 0.90 0.90 88 1013.9
20260830055853 56 82 0.0 0.0 0.00 3.54 0.90 88 1014.5
20260830055317 56 82 0.0 0.0 0.00 3.54 0.90 88 1014.5
20260830054856 56 82 0.0 0.0 0.00 3.54 0.90 87 1014.5
20260830054605 56 82 0.0 0.0 0.00 0.90 0.90 87 1013.9
20260830054350 57 82 0.0 0.0 0.00 3.54 0.90 87 1014.6
20260830053831 57 72 0.0 0.0 0.00 3.54 0.90 87 1014.7
20260830053325 57 72 0.0 0.0 0.00 3.54 0.90 86 1014.7
20260830053105 56 68 0.0 0.0 0.00 0.90 0.90 86 1014.1
20260830052330 57 71 0.0 0.0 0.00 3.54 0.90 86 1014.8
20260830051826 57 94 0.0 0.0 0.00 3.54 0.90 85 1014.8
20260830051507 57 71 0.0 5.0 0.00 0.90 0.90 84 1014.2
20260830051330 58 72 0.0 10.0 0.00 3.54 0.90 84 1014.8
20260830050856 58 46 1.0 10.0 0.00 3.54 0.90 84 1014.8
20260830050346 58 5 0.0 5.0 0.00 3.54 0.90 83 1014.9
20260830050104 58 233 0.0 5.0 0.00 0.90 0.90 83 1014.2
20260830045835 58 273 1.0 5.0 0.00 3.54 0.90 84 1014.8
20260830045317 58 56 0.0 0.0 0.00 3.54 0.90 83 1014.7
20260830044856 58 146 0.0 0.0 0.00 3.54 0.90 82 1014.7
20260830044606 57 90 0.0 0.0 0.00 0.90 0.90 81 1014.1
20260830044335 58 101 0.0 0.0 0.00 3.54 0.90 82 1014.8
20260830043826 57 153 0.0 0.0 0.00 3.54 0.90 81 1014.8
20260830043331 57 152 0.0 0.0 0.00 3.54 0.90 81 1014.7
20260830043102 57 208 0.0 0.0 0.00 0.90 0.90 82 1014.1
20260830042913 57 146 0.0 0.0 0.00 3.54 0.90 82 1014.7
20260830042318 58 219 0.0 0.0 0.00 3.54 0.90 81 1014.7
20260830041824 58 142 0.0 0.0 0.00 3.54 0.90 81 1014.8
20260830041353 58 139 0.0 0.0 0.00 3.54 0.90 80 1014.7
20260830040827 58 99 0.0 0.0 0.00 3.54 0.90 81 1014.7
20260830040332 57 198 0.0 0.0 0.00 3.54 0.90 81 1014.6
20260830040101 57 108 0.0 0.0 0.00 0.90 0.90 81 1013.9
20260830035838 57 224 0.0 0.0 0.00 3.54 0.90 81 1014.6
20260830035346 57 124 0.0 0.0 0.00 3.54 0.90 81 1014.6
20260830034843 57 156 0.0 0.0 0.00 3.54 0.90 79 1014.6
20260830034624 57 176 0.0 0.0 0.00 0.90 0.90 81 1013.8
20260830034320 57 98 0.0 0.0 0.00 3.54 0.90 81 1014.5
20260830033846 57 150 0.0 0.0 0.00 3.54 0.90 82 1014.4
20260830033330 57 134 0.0 0.0 0.00 3.54 0.90 82 1014.4